This is the latest recevied weather packets stored in our database for station/object NA9VY-8. If no packets are shown the sender has not sent any weather packets the latest 10 day(s).
| Time | Temp. | Humidity | Pressure | Rain* | Wind** | Luminosity | Snow |
|---|---|---|---|---|---|---|---|
| 1777473804 | 13.33° C | 99% | 1015.9 hPa | 0 mm | - | 225 W/m² | - |
| 1777473500 | 13.33° C | 99% | 1015.9 hPa | 0 mm | - | 166 W/m² | - |
| 1777473195 | 12.78° C | 99% | 1015.8 hPa | 0 mm | - | 206 W/m² | - |
| 1777472892 | 12.78° C | 99% | 1016 hPa | 0 mm | - | 100 W/m² | - |
| 1777472589 | 12.78° C | 99% | 1015.8 hPa | 0 mm | - | 98 W/m² | - |
| 1777472286 | 12.78° C | 99% | 1015.9 hPa | 0 mm | - | 66 W/m² | - |
| 1777471982 | 12.78° C | 99% | 1015.7 hPa | 0 mm | - | 81 W/m² | - |
| 1777471678 | 12.22° C | 99% | 1015.8 hPa | 0 mm | - | 153 W/m² | - |
| 1777471375 | 12.22° C | 99% | 1015.8 hPa | 0.51 mm | - | 146 W/m² | - |
| 1777471071 | 12.78° C | 99% | 1015.8 hPa | 0.51 mm | - | 117 W/m² | - |
| 1777470768 | 12.22° C | 99% | 1015.6 hPa | 0.51 mm | - | 83 W/m² | - |
| 1777470465 | 12.22° C | 99% | 1015.5 hPa | 1.78 mm | - | 113 W/m² | - |
| 1777470161 | 12.22° C | 99% | 1015.5 hPa | 2.29 mm | - | 71 W/m² | - |
| 1777469858 | 12.22° C | 99% | 1015.7 hPa | 1.78 mm | - | 43 W/m² | - |
| 1777469554 | 12.22° C | 99% | 1015.7 hPa | 1.27 mm | - | 43 W/m² | - |
| 1777469254 | 12.22° C | 99% | 1015.8 hPa | 0 mm | - | 45 W/m² | - |
| 1777468948 | 12.22° C | 99% | 1015.5 hPa | 0 mm | - | 42 W/m² | - |
| 1777468645 | 12.22° C | 99% | 1015.4 hPa | 0 mm | - | 43 W/m² | - |
| 1777468342 | 12.22° C | 99% | 1015.3 hPa | 0.51 mm | - | 77 W/m² | - |
| 1777468038 | 11.67° C | 99% | 1015.4 hPa | 1.78 mm | - | 91 W/m² | - |
| 1777467734 | 12.22° C | 99% | 1015.7 hPa | 1.78 mm | - | 43 W/m² | - |
| 1777467429 | 12.22° C | 99% | 1015.7 hPa | 1.27 mm | - | 31 W/m² | - |
| 1777467125 | 12.22° C | 99% | 1015.4 hPa | 0.51 mm | - | 34 W/m² | - |
| 1777466822 | 12.22° C | 99% | 1015.5 hPa | 0.51 mm | - | 26 W/m² | - |
| 1777466520 | 12.22° C | 99% | 1015.5 hPa | 1.27 mm | - | 23 W/m² | - |
* Rain latest hour (hover to see other rain measurements)
** Current wind speed in m/s (hover to see current wind gust speed)